Hourly Data Report for June 20, 2021

TOBERMORY RCS
ONTARIO
Current Station Operator: ECCC - MSC

45°14'00.000" N
81°38'00.000" W
213.50 m
6128330
71767
TTR

Download Data

Hourly Data (June 2021)
Hourly Data Report for June 20, 2021
TIME
LST
Temp Definition
°C
Dew Point Definition
°C
Rel Hum Definition
%
Precip. Amount Definition
mm

Wind Dir Definition
10's deg

Wind Spd Definition
km/h
Visibility Definition
km
Stn Press Definition
kPa
Hmdx Definition


Wind Chill Definition


Weather Definition


00:00 10.7 9.8 94 0.0 30 2   98.26     LegendNANA
01:00 11.8 9.9 88 0.0 22 10   98.30     LegendNANA
02:00 11.8 9.6 86 0.0 27 7   98.29     LegendNANA
03:00 10.2 9.2 93 0.0 17 2   98.28     LegendNANA
04:00 9.6 9.0 96 0.0 24 1   98.30     LegendNANA
05:00 11.6 10.1 91 0.0 30 6   98.26     LegendNANA
06:00 13.0 10.7 86 0.0 26 6   98.30     LegendNANA
07:00 14.4 10.1 75 0.0 24 7   98.34     LegendNANA
08:00 16.0 9.7 66 0.0 23 5   98.33     LegendNANA
09:00 18.0 10.6 62 0.0 23 6   98.30     LegendNANA
10:00 19.0 9.5 54 0.0 24 7   98.30     LegendNANA
11:00 18.8 9.4 54 0.0 25 10   98.30     LegendNANA
12:00 21.0 9.7 49 0.0 25 7   98.29     LegendNANA
13:00 20.8 8.7 46 0.0 30 8   98.26     LegendNANA
14:00 21.3 9.6 47 0.0 31 5   98.20     LegendNANA
15:00 20.2 10.6 54 0.0 34 11   98.22     LegendNANA
16:00 19.8 9.8 52 0.0 36 6   98.16     LegendNANA
17:00 19.1 10.2 56 0.0 7 6   98.06     LegendNANA
18:00 19.7 11.3 59 0.0 9 4   98.05     LegendNANA
19:00 19.0 11.3 61 0.0 17 3   98.01     LegendNANA
20:00 17.4 12.0 71 0.0 12 2   97.98     LegendNANA
21:00 16.6 11.0 70 0.0 12 5   97.90     LegendNANA
22:00 16.7 10.9 69 0.0 13 7   97.82     LegendNANA
23:00 16.4 11.4 72 0.0 13 7   97.76     LegendNANA

Notes on Data Quality.

Legend

  • E = Estimated
  • M = Missing
  • NA = Not Available*
  • [empty] = Indicates an unobserved value
Date modified: